(227107) = 2005 ND36

Discovered at Mount Lemmon on 2005-07-05 by Mt. Lemmon Survey.

Orbit

Orbit type: Main Belt

Note: WebGL enabled browser required.

epoch2024-03-31.0
epoch JD2460400.5
perihelion date2022-02-12.38471
perihelion JD2459622.88471
argument of perihelion (°)165.77973
ascending node (°)131.63197
inclination (°)3.26170
eccentricity0.1867032
perihelion distance (AU)1.8121521
Tisserand w.r.t. Jupiter3.6
ΔV w.r.t. Earth (km/sec)8.3
semimajor axis (AU)2.2281560
mean anomaly (°)230.43596
mean daily motion (°/day)0.29633670
aphelion distance (AU)2.644
period (years)3.33
P-vector [x]0.46067862
P-vector [y]-0.81978545
P-vector [z]-0.34018673
Q-vector [x]0.88654765
Q-vector [y]0.44337310
Q-vector [z]0.13211195
absolute magnitude17.84
phase slope0.15
uncertainty0
referenceMPEC 2024-E73
observations used303
oppositions16
arc length (days)8389
first opposition used2001
last opposition used2024
residual rms (arc-secs)0.76
perturbers coarse indicatorM-v
perturbers precise indicator003Ek
first observation date used2001-03-17.0
last observation date used2024-03-05.0
computer nameMPCLINUX
JD of orbit computation2456731.603867
perihelion JD uncertainty (days)7.4203E-05
argument of perihelion uncertainty (°)1.0823E-04
ascending node uncertainty (°)1.0680E-04
inclination uncertainty (°)5.1914E-06
eccentricity uncertainty 4.6948E-08
perihelion distance uncertainty (AU)1.0255E-07
Minimum Orbit Intersection Distances (in AU)
for orbit epoch: 2460400.5, reference: E2024-E73
Mercury1.36782
Venus1.08578
Earth0.79633
Mars0.39844
Jupiter2.54903
Saturn6.42776
Uranus15.8981
Neptune27.4098

Observations

309 total observations over interval: 2001 03 17.26733 – 2024 03 05.180316
These data are available for download (format description).

Date (UT) J2000 RA J2000 Dec Magn Location Ref
2001 03 17.26733 11 48 03.14 +05 31 37.4 21.7 V 691 – Steward Observatory, Kitt Peak-Spacewatch MPS 149574
2001 03 17.28863 11 48 01.89 +05 31 47.5 21.6 V 691 – Steward Observatory, Kitt Peak-Spacewatch MPS 149574
2001 03 17.30988 11 48 00.60 +05 31 57.2 21.8 V 691 – Steward Observatory, Kitt Peak-Spacewatch MPS 149574
2002 10 31.26950 01 53 30.31 +05 24 10.6 19.4   704 – Lincoln Laboratory ETS, New Mexico MPS 149574
2002 10 31.28658 01 53 29.27 +05 24 05.4 19.8   704 – Lincoln Laboratory ETS, New Mexico MPS 149574
2002 10 31.32084 01 53 27.13 +05 23 56.8 19.7   704 – Lincoln Laboratory ETS, New Mexico MPS 149574
2004 02 12.19775 09 26 28.29 +15 53 44.2 21.8 V 691 – Steward Observatory, Kitt Peak-Spacewatch MPS 149574
2004 02 12.22610 09 26 26.38 +15 53 55.0 22.2 V 691 – Steward Observatory, Kitt Peak-Spacewatch MPS 149574
2004 02 12.25825 09 26 24.29 +15 54 07.2 21.8 V 691 – Steward Observatory, Kitt Peak-Spacewatch MPS 149574
2005 05 19.44916 21 05 12.21 -14 17 30.4 20.5 R G96 – Mt. Lemmon Survey MPS 138499
2005 05 19.45301 21 05 12.50 -14 17 29.1 19.9 R G96 – Mt. Lemmon Survey MPS 138499
2005 05 19.45686 21 05 12.82 -14 17 28.1 20.8 R G96 – Mt. Lemmon Survey MPS 138499
2005 05 19.46078 21 05 13.15 -14 17 26.7 20.3 R G96 – Mt. Lemmon Survey MPS 138499
2005 06 17.37216 21 36 12.67 -12 30 29.0 20.4 V G96 – Mt. Lemmon Survey MPS 138499
2005 06 17.37752 21 36 12.92 -12 30 28.1 20.1 V G96 – Mt. Lemmon Survey MPS 138499
2005 06 17.38288 21 36 13.06 -12 30 27.9 19.9 V G96 – Mt. Lemmon Survey MPS 138499
2005 06 17.38823 21 36 13.32 -12 30 27.7 20.5 V G96 – Mt. Lemmon Survey MPS 138499
2005 07 05.42002 21 42 46.98 -12 38 00.1 20.0 V G96 – Mt. Lemmon Survey MPS 138028
2005 07 05.42818 21 42 46.98 -12 38 01.4 19.9 V G96 – Mt. Lemmon Survey MPS 138028
2005 07 05.43634 21 42 46.98 -12 38 02.5 19.9 V G96 – Mt. Lemmon Survey MPS 138028
2005 07 05.44456 21 42 46.94 -12 38 03.7 19.8 V G96 – Mt. Lemmon Survey MPS 138028
2005 07 05.45189 21 42 47.02 -12 38 04.6 19.9   644 – Palomar Mountain/NEAT MPS 138499
2005 07 05.46326 21 42 47.01 -12 38 06.2 19.8   644 – Palomar Mountain/NEAT MPS 138499
2005 07 05.47342 21 42 47.01 -12 38 07.9 19.9   644 – Palomar Mountain/NEAT MPS 138499
2005 07 09.40572 21 42 40.46 -12 49 33.8 20.1 V 691 – Steward Observatory, Kitt Peak-Spacewatch MPS 138028
2005 07 09.42313 21 42 40.28 -12 49 37.4 19.9 V 691 – Steward Observatory, Kitt Peak-Spacewatch MPS 138028
2005 07 09.44071 21 42 40.13 -12 49 41.0 19.9 V 691 – Steward Observatory, Kitt Peak-Spacewatch MPS 138028
2005 07 18.39402 21 40 23.23 -13 28 29.7 19.7   644 – Palomar Mountain/NEAT MPS 138499
2005 07 18.41808 21 40 22.57 -13 28 37.4 19.6   644 – Palomar Mountain/NEAT MPS 138499
2005 07 18.44587 21 40 21.77 -13 28 46.0 19.4   644 – Palomar Mountain/NEAT MPS 138499
2005 11 06.12781 21 48 13.50 -16 14 43.5 21.9 V G96 – Mt. Lemmon Survey MPS 149574
2005 11 06.13645 21 48 14.18 -16 14 39.8 21.5 V G96 – Mt. Lemmon Survey MPS 149574
2005 11 06.14505 21 48 14.90 -16 14 36.4 21.9 V G96 – Mt. Lemmon Survey MPS 149574
2005 11 06.15363 21 48 15.55 -16 14 33.7 21.7 V G96 – Mt. Lemmon Survey MPS 149574
2006 12 27.25631 07 32 41.89 +19 27 01.2 21.3 V G96 – Mt. Lemmon Survey MPS 192220
2006 12 27.26343 07 32 41.38 +19 27 02.4 21.6 V G96 – Mt. Lemmon Survey MPS 192220
2006 12 27.27042 07 32 40.95 +19 27 03.6 21.3 V G96 – Mt. Lemmon Survey MPS 192220
2006 12 27.28044 07 32 40.30 +19 27 05.4 21.3 V G96 – Mt. Lemmon Survey MPS 192220
2007 01 10.28728 07 17 02.86 +20 11 49.8 21.1 V G96 – Mt. Lemmon Survey MPS 195528
2007 01 10.29238 07 17 02.47 +20 11 50.4 20.9 V G96 – Mt. Lemmon Survey MPS 195528
2007 01 10.29806 07 17 02.07 +20 11 51.7 21.0 V G96 – Mt. Lemmon Survey MPS 195528
2007 01 10.30354 07 17 01.71 +20 11 53.1 21.2 V G96 – Mt. Lemmon Survey MPS 195528
2008 04 03.42747 15 42 10.33 -14 02 47.4 20.7 V G96 – Mt. Lemmon Survey MPS 244696
2008 04 03.43402 15 42 10.29 -14 02 46.6 20.4 V G96 – Mt. Lemmon Survey MPS 244696
2008 04 03.44051 15 42 10.29 -14 02 45.5 20.4 V G96 – Mt. Lemmon Survey MPS 244696
2008 04 03.44708 15 42 10.22 -14 02 44.0 20.5 V G96 – Mt. Lemmon Survey MPS 244696
2008 04 07.45501 15 41 48.49 -13 51 34.8 20.4 V 691 – Steward Observatory, Kitt Peak-Spacewatch MPS 245747
2008 04 07.47265 15 41 48.30 -13 51 31.0 20.6 V 691 – Steward Observatory, Kitt Peak-Spacewatch MPS 245747
2008 04 07.49030 15 41 48.08 -13 51 27.9 20.7 V 691 – Steward Observatory, Kitt Peak-Spacewatch MPS 245747
2008 04 15.43261 15 39 26.38 -13 24 56.4 20.3 V 691 – Steward Observatory, Kitt Peak-Spacewatch MPS 246750
2008 04 15.45025 15 39 25.85 -13 24 52.2 20.4 V 691 – Steward Observatory, Kitt Peak-Spacewatch MPS 246750
2008 04 15.46788 15 39 25.37 -13 24 48.3 20.3 V 691 – Steward Observatory, Kitt Peak-Spacewatch MPS 246750
2008 05 03.35777 15 26 57.76 -12 10 52.4 19.5 V G96 – Mt. Lemmon Survey MPS 248965
2008 05 03.36442 15 26 57.37 -12 10 50.8 19.6 V G96 – Mt. Lemmon Survey MPS 248965
2008 05 03.37105 15 26 56.97 -12 10 49.0 19.4 V G96 – Mt. Lemmon Survey MPS 248965
2008 05 03.37774 15 26 56.61 -12 10 47.2 19.4 V G96 – Mt. Lemmon Survey MPS 248965
2008 06 03.23837 14 58 03.57 -10 35 13.4 20.0 V G96 – Mt. Lemmon Survey MPS 250948
2008 06 03.24501 14 58 03.25 -10 35 12.9 19.8 V G96 – Mt. Lemmon Survey MPS 250948
2008 06 03.25169 14 58 02.96 -10 35 12.5 19.8 V G96 – Mt. Lemmon Survey MPS 250948
2008 06 03.25839 14 58 02.64 -10 35 12.0 19.8 V G96 – Mt. Lemmon Survey MPS 250948
2009 11 10.38542 05 26 32.52 +18 41 00.9 21.6 V 691 – Steward Observatory, Kitt Peak-Spacewatch MPS 302170
2009 11 10.40267 05 26 31.71 +18 40 59.9 21.3 V 691 – Steward Observatory, Kitt Peak-Spacewatch MPS 302170
2009 11 10.42002 05 26 30.89 +18 40 59.2 21.2 V 691 – Steward Observatory, Kitt Peak-Spacewatch MPS 302170
2009 11 18.29847 05 19 45.65 +18 31 41.3 21.4 V 691 – Steward Observatory, Kitt Peak-Spacewatch MPS 303289
2009 11 18.31960 05 19 44.39 +18 31 39.9 21.3 V 691 – Steward Observatory, Kitt Peak-Spacewatch MPS 303289
2009 11 18.33724 05 19 43.36 +18 31 38.5 21.3 V 691 – Steward Observatory, Kitt Peak-Spacewatch MPS 303289
2009 12 11.26311 04 54 08.13 +18 07 39.3 20.4 V G96 – Mt. Lemmon Survey MPS 307190
2009 12 11.26888 04 54 07.74 +18 07 39.1 20.6 V G96 – Mt. Lemmon Survey MPS 307190
2009 12 11.27459 04 54 07.30 +18 07 38.6 20.5 V G96 – Mt. Lemmon Survey MPS 307190
2009 12 11.28032 04 54 06.94 +18 07 38.3 20.5 V G96 – Mt. Lemmon Survey MPS 307190
2011 04 02.30687 11 44 33.934 +06 18 27.07 21.3 w F51 – Pan-STARRS 1, Haleakala MPS 378479
2011 04 02.32200 11 44 33.079 +06 18 32.87 21.1 w F51 – Pan-STARRS 1, Haleakala MPS 378479
2011 04 02.33816 11 44 32.142 +06 18 39.32 21.1 w F51 – Pan-STARRS 1, Haleakala MPS 378479
2011 04 02.35325 11 44 31.273 +06 18 45.19 21.2 w F51 – Pan-STARRS 1, Haleakala MPS 378479
2012 10 07.06254 02 29 22.61 +08 46 37.9 20.9   J43 – Oukaimeden Observatory, Marrakech MPS 434812
2012 10 07.07574 02 29 22.00 +08 46 34.0 20.5   J43 – Oukaimeden Observatory, Marrakech MPS 434812
2012 10 07.08894 02 29 21.24 +08 46 29.0 20.4   J43 – Oukaimeden Observatory, Marrakech MPS 434812
2012 10 07.10216 02 29 20.55 +08 46 24.6 20.4   J43 – Oukaimeden Observatory, Marrakech MPS 434812
2012 11 06.27343 01 59 23.64 +06 00 58.5 20.3 V G96 – Mt. Lemmon Survey MPS 441299
2012 11 06.27966 01 59 23.28 +06 00 56.7 20.5 V G96 – Mt. Lemmon Survey MPS 441299
2012 11 06.28590 01 59 22.88 +06 00 56.6 19.7 V G96 – Mt. Lemmon Survey MPS 441299
2012 11 06.29216 01 59 22.56 +06 00 54.1 20.3 V G96 – Mt. Lemmon Survey MPS 441299
2012 11 06.295700 01 59 22.666 +06 00 54.28 20.5 w F51 – Pan-STARRS 1, Haleakala MPS 441299
2012 11 06.325558 01 59 20.939 +06 00 46.54 20.9 w F51 – Pan-STARRS 1, Haleakala MPS 441299
2012 11 06.340483 01 59 20.078 +06 00 42.85 21.1 w F51 – Pan-STARRS 1, Haleakala MPS 441299
2014 02 22.30457 09 24 10.05 +16 25 08.3 20.8 V G96 – Mt. Lemmon Survey MPS 503637
2014 02 22.31115 09 24 09.64 +16 25 10.7 21.1 V G96 – Mt. Lemmon Survey MPS 503637
2014 02 22.31774 09 24 09.22 +16 25 12.6 21.0 V G96 – Mt. Lemmon Survey MPS 503637
2014 02 22.32428 09 24 08.83 +16 25 15.2 21.6 V G96 – Mt. Lemmon Survey MPS 503637
2015 06 20.53783 21 53 03.895 -11 27 22.46 20.6 w F52 – Pan-STARRS 2, Haleakala MPS 613855
